sat.trackr.live / text

‹ back to catalog

KUIPER-00035

NORAD 63748 · 2025-088AA

PAYLOAD ACTIVE UNKNOWN

§ Identity

Operator
Country
US
Launch date
2025-04-28
Launch site
AFETR
Launch vehicle
Mass (kg)
RCS (m²)

External: N2YO · Heavens-Above · Gunter

§ Orbital elements

Epoch: 2026-09-21T10:39:46.738944Z

Period
97.30 min
Inclination
51.9029°
Eccentricity
0.0000386
Mean motion
14.79912895 rev/d
Perigee alt
629.3 km
Apogee alt
629.9 km
Semi-major
7,007.7 km
B*
1.4503e-4
RAAN
327.4613°
Arg perigee
87.7909°
Mean anomaly
272.3097°
Rev number
7,651

§ Raw data

KUIPER-000351 63748U 25088AA  26264.44429096  .00000884  00000+0  14503-3 0  99942 63748  51.9029 327.4613 0000386  87.7909 272.3097 14.79912895 76513

JSON: /api/v1/satellites/63748 · /tle

For live sub-satellite position, see the globe view (requires WebGL).

§ Visibility from observer

Set your observer location to see the next 7 days of passes ≥ 10°. The values pass through the URL so the page stays shareable.

No JS? Fill the form by hand. The geolocation button needs JavaScript.